2016-11-16 00:09:47 r, 16.62m,0000000019Hz,0000024254c,0000000.053s, 012.2C,00002191
2016-11-16 00:19:47 r, 16.49m,0000000021Hz,0000021668c,0000000.047s, 012.5C,00002191
2016-11-16 00:29:48 r, 16.45m,0000000021Hz,0000020965c,0000000.045s, 013.2C,00002191
2016-11-16 00:39:48 r, 16.49m,0000000021Hz,0000021728c,0000000.047s, 013.5C,00002191
2016-11-16 00:49:48 r, 16.22m,0000000028Hz,0000016914c,0000000.037s, 013.8C,00002191
2016-11-16 00:59:48 r, 16.29m,0000000024Hz,0000018061c,0000000.039s, 013.8C,00002191
2016-11-16 01:09:47 r, 15.94m,0000000038Hz,0000013005c,0000000.028s, 013.8C,00002191
2016-11-16 01:19:47 r, 16.46m,0000000021Hz,0000021059c,0000000.046s, 013.8C,00002191
2016-11-16 01:29:48 r, 15.91m,0000000039Hz,0000012703c,0000000.028s, 013.8C,00002191
2016-11-16 01:39:47 r, 16.12m,0000000029Hz,0000015409c,0000000.033s, 013.8C,00002191
2016-11-16 01:49:48 r, 15.88m,0000000037Hz,0000012350c,0000000.027s, 014.1C,00002191
2016-11-16 01:59:48 r, 15.80m,0000000041Hz,0000011517c,0000000.025s, 014.1C,00002191
2016-11-16 02:09:47 r, 15.68m,0000000045Hz,0000010300c,0000000.022s, 014.1C,00002191
2016-11-16 02:19:48 r, 16.56m,0000000020Hz,0000023113c,0000000.050s, 013.8C,00002191
2016-11-16 02:29:48 r, 16.47m,0000000021Hz,0000021366c,0000000.046s, 013.8C,00002191
2016-11-16 02:39:48 r, 16.44m,0000000022Hz,0000020780c,0000000.045s, 013.8C,00002191
2016-11-16 02:49:47 r, 16.45m,0000000022Hz,0000020971c,0000000.046s, 014.1C,00002191
2016-11-16 02:59:48 r, 16.42m,0000000023Hz,0000020414c,0000000.044s, 014.1C,00002191
2016-11-16 03:09:48 r, 16.92m,0000000014Hz,0000032166c,0000000.070s, 014.1C,00002191
2016-11-16 03:19:47 r, 16.77m,0000000016Hz,0000028065c,0000000.061s, 014.5C,00002191
2016-11-16 03:29:48 r, 16.99m,0000000013Hz,0000034379c,0000000.075s, 014.5C,00002191
2016-11-16 03:39:48 r, 17.09m,0000000012Hz,0000037707c,0000000.082s, 014.8C,00002191
2016-11-16 03:49:48 r, 17.10m,0000000012Hz,0000038109c,0000000.083s, 014.8C,00002191
2016-11-16 03:59:47 r, 17.19m,0000000011Hz,0000041349c,0000000.090s, 014.8C,00002191
2016-11-16 04:09:48 r, 17.33m,0000000010Hz,0000046973c,0000000.102s, 015.1C,00002191
2016-11-16 04:19:48 r, 17.16m,0000000012Hz,0000040007c,0000000.087s, 015.1C,00002191
2016-11-16 04:29:47 r, 17.36m,0000000010Hz,0000048157c,0000000.105s, 015.1C,00002191
2016-11-16 04:39:48 r, 17.41m,0000000009Hz,0000050377c,0000000.109s, 015.1C,00002191
2016-11-16 04:49:47 r, 17.47m,0000000009Hz,0000053606c,0000000.116s, 015.1C,00002191
2016-11-16 04:59:47 r, 17.84m,0000000006Hz,0000074981c,0000000.163s, 015.1C,00002191
2016-11-16 05:09:47 r, 18.37m,0000000004Hz,0000122509c,0000000.266s, 015.1C,00002191
2016-11-16 05:19:47 r, 18.34m,0000000004Hz,0000119164c,0000000.259s, 015.4C,00002191
2016-11-16 05:29:48 r, 18.16m,0000000004Hz,0000100865c,0000000.219s, 015.4C,00002191
2016-11-16 05:39:48 r, 18.26m,0000000005Hz,0000110297c,0000000.239s, 015.4C,00002191
2016-11-16 05:49:48 r, 18.36m,0000000004Hz,0000121497c,0000000.264s, 015.1C,00002191
2016-11-16 05:59:48 r, 18.07m,0000000005Hz,0000093023c,0000000.202s, 015.1C,00002191
2016-11-16 06:09:48 r, 17.28m,0000000010Hz,0000045002c,0000000.098s, 015.1C,00002191
2016-11-16 06:19:47 r, 17.44m,0000000009Hz,0000052027c,0000000.113s, 015.1C,00002191
2016-11-16 06:29:48 r, 17.78m,0000000006Hz,0000071141c,0000000.154s, 015.4C,00002191
2016-11-16 06:39:48 r, 17.33m,0000000010Hz,0000046883c,0000000.102s, 015.7C,00002191
2016-11-16 06:49:47 r, 16.47m,0000000021Hz,0000021358c,0000000.046s, 015.7C,00002191
2016-11-16 06:59:48 r, 14.55m,0000000128Hz,0000000000c,0000000.000s, 015.7C,00002191
2016-11-16 07:09:48 r, 12.91m,0000000580Hz,0000000000c,0000000.000s, 015.4C,00002191
2016-11-16 07:19:48 r, 11.03m,0000003284Hz,0000000000c,0000000.000s, 015.4C,00002191
2016-11-16 07:29:48 r, 09.51m,0000013262Hz,0000000000c,0000000.000s, 015.4C,00002191
2016-11-16 07:39:48 r, 08.29m,0000040914Hz,0000000000c,0000000.000s, 015.4C,00002191
2016-11-16 07:49:47 r, 07.14m,0000117844Hz,0000000000c,0000000.000s, 015.4C,00002191
2016-11-16 07:59:48 r, 06.67m,0000181745Hz,0000000000c,0000000.000s, 015.4C,00002191
2016-11-16 08:09:47 r, 06.24m,0000269323Hz,0000000000c,0000000.000s, 015.4C,00002191
2016-11-16 08:19:47 r, 00.00m,0000483112Hz,0000000000c,0000000.000s, 015.7C,00002191
2016-11-16 08:29:47 r, 00.00m,0000456828Hz,0000000000c,0000000.000s, 016.1C,00002191
2016-11-16 08:39:48 r, 00.00m,0000586062Hz,0000000000c,0000000.000s, 016.4C,00002191
2016-11-16 08:49:48 r, 00.00m,0000597019Hz,0000000000c,0000000.000s, 016.4C,00002191
2016-11-16 08:59:47 r, 00.00m,0000596925Hz,0000000000c,0000000.000s, 016.7C,00002191
2016-11-16 09:09:48 r, 00.00m,0000596966Hz,0000000000c,0000000.000s, 017.0C,00002191
2016-11-16 09:19:48 r, 00.00m,0000596909Hz,0000000000c,0000000.000s, 017.0C,00002191
2016-11-16 09:29:48 r, 00.00m,0000596890Hz,0000000000c,0000000.000s, 017.4C,00002191
2016-11-16 09:39:48 r, 00.00m,0000597020Hz,0000000000c,0000000.000s, 017.7C,00002191
2016-11-16 09:49:48 r, 00.00m,0000596915Hz,0000000000c,0000000.000s, 018.0C,00002191
2016-11-16 09:59:47 r, 00.00m,0000596986Hz,0000000000c,0000000.000s, 018.0C,00002191
2016-11-16 10:09:48 r, 00.00m,0000596904Hz,0000000000c,0000000.000s, 018.3C,00002191
2016-11-16 10:19:47 r, 00.00m,0000596828Hz,0000000000c,0000000.000s, 018.3C,00002191
2016-11-16 10:29:47 r, 00.00m,0000596783Hz,0000000000c,0000000.000s, 018.6C,00002191
2016-11-16 10:39:48 r, 00.00m,0000596729Hz,0000000000c,0000000.000s, 018.6C,00002191
2016-11-16 10:49:47 r, 00.00m,0000596817Hz,0000000000c,0000000.000s, 019.0C,00002191
2016-11-16 10:59:48 r, 00.00m,0000596650Hz,0000000000c,0000000.000s, 019.3C,00002191
2016-11-16 11:09:47 r, 00.00m,0000596733Hz,0000000000c,0000000.000s, 019.6C,00002191
2016-11-16 11:19:48 r, 00.00m,0000596669Hz,0000000000c,0000000.000s, 020.3C,00002191
2016-11-16 11:29:47 r, 00.00m,0000596477Hz,0000000000c,0000000.000s, 020.9C,00002191
2016-11-16 11:39:47 r, 00.00m,0000596449Hz,0000000000c,0000000.000s, 021.9C,00002191
2016-11-16 11:49:48 r, 00.00m,0000596389Hz,0000000000c,0000000.000s, 021.9C,00002191
2016-11-16 11:59:47 r, 00.00m,0000596457Hz,0000000000c,0000000.000s, 021.9C,00002191
2016-11-16 12:09:48 r, 00.00m,0000596498Hz,0000000000c,0000000.000s, 021.9C,00002191
2016-11-16 12:19:48 r, 00.00m,0000596321Hz,0000000000c,0000000.000s, 022.5C,00002191
2016-11-16 12:29:47 r, 00.00m,0000596352Hz,0000000000c,0000000.000s, 023.2C,00002191
2016-11-16 12:39:47 r, 00.00m,0000596263Hz,0000000000c,0000000.000s, 023.2C,00002191
2016-11-16 12:49:47 r, 00.00m,0000596184Hz,0000000000c,0000000.000s, 024.1C,00002191
2016-11-16 12:59:48 r, 00.00m,0000596120Hz,0000000000c,0000000.000s, 024.8C,00002191
2016-11-16 13:09:48 r, 00.00m,0000596184Hz,0000000000c,0000000.000s, 024.8C,00002191
2016-11-16 13:19:48 r, 00.00m,0000596230Hz,0000000000c,0000000.000s, 024.1C,00002191
2016-11-16 13:29:47 r, 00.00m,0000596294Hz,0000000000c,0000000.000s, 023.5C,00002191
2016-11-16 13:39:48 r, 00.00m,0000596383Hz,0000000000c,0000000.000s, 022.8C,00002191
2016-11-16 13:49:48 r, 00.00m,0000596449Hz,0000000000c,0000000.000s, 022.5C,00002191
2016-11-16 13:59:47 r, 00.00m,0000596471Hz,0000000000c,0000000.000s, 022.5C,00002191
2016-11-16 14:09:48 r, 00.00m,0000596503Hz,0000000000c,0000000.000s, 022.8C,00002191
2016-11-16 14:19:48 r, 00.00m,0000596354Hz,0000000000c,0000000.000s, 023.5C,00002191
2016-11-16 14:29:47 r, 00.00m,0000596332Hz,0000000000c,0000000.000s, 023.5C,00002191
2016-11-16 14:39:48 r, 00.00m,0000596297Hz,0000000000c,0000000.000s, 023.5C,00002191
2016-11-16 14:49:48 r, 00.00m,0000596267Hz,0000000000c,0000000.000s, 023.2C,00002191
2016-11-16 14:59:48 r, 00.00m,0000596349Hz,0000000000c,0000000.000s, 022.8C,00002191
2016-11-16 15:09:48 r, 00.00m,0000596374Hz,0000000000c,0000000.000s, 022.8C,00002191
2016-11-16 15:19:48 r, 00.00m,0000596408Hz,0000000000c,0000000.000s, 022.5C,00002191
2016-11-16 15:29:48 r, 00.00m,0000596446Hz,0000000000c,0000000.000s, 022.5C,00002191
2016-11-16 15:39:48 r, 00.00m,0000596589Hz,0000000000c,0000000.000s, 022.5C,00002191
2016-11-16 15:49:48 r, 00.00m,0000596523Hz,0000000000c,0000000.000s, 022.2C,00002191
2016-11-16 15:59:48 r, 00.00m,0000596600Hz,0000000000c,0000000.000s, 021.9C,00002191
2016-11-16 16:09:48 r, 06.06m,0000319102Hz,0000000000c,0000000.000s, 021.9C,00002191
2016-11-16 16:19:48 r, 06.20m,0000280522Hz,0000000000c,0000000.000s, 021.5C,00002191
2016-11-16 16:29:48 r, 06.59m,0000195407Hz,0000000000c,0000000.000s, 020.9C,00002191
2016-11-16 16:39:48 r, 07.29m,0000102608Hz,0000000000c,0000000.000s, 020.9C,00002191
2016-11-16 16:49:48 r, 08.25m,0000042508Hz,0000000000c,0000000.000s, 020.6C,00002191
2016-11-16 16:59:49 r, 09.56m,0000012640Hz,0000000000c,0000000.000s, 020.3C,00002191
2016-11-16 17:09:47 r, 11.35m,0000002443Hz,0000000000c,0000000.000s, 020.3C,00002191
2016-11-16 17:19:48 r, 13.28m,0000000413Hz,0000000000c,0000000.000s, 019.9C,00002191
2016-11-16 17:29:48 r, 15.28m,0000000065Hz,0000007103c,0000000.015s, 019.9C,00002191
2016-11-16 17:39:47 r, 16.90m,0000000015Hz,0000031685c,0000000.069s, 019.9C,00002191
2016-11-16 17:49:47 r, 18.28m,0000000004Hz,0000112413c,0000000.244s, 019.6C,00002191
2016-11-16 17:59:48 r, 19.36m,0000000002Hz,0000307135c,0000000.667s, 019.6C,00002191
2016-11-16 18:09:48 r, 20.13m,0000000001Hz,0000610723c,0000001.325s, 019.3C,00002191
2016-11-16 18:19:48 r, 20.33m,0000000001Hz,0000739162c,0000001.604s, 019.0C,00002191
2016-11-16 18:29:48 r, 20.64m,0000000000Hz,0000974102c,0000002.114s, 018.6C,00002191
2016-11-16 18:39:47 r, 20.61m,0000000001Hz,0000950116c,0000002.062s, 018.3C,00002191
2016-11-16 18:49:48 r, 20.49m,0000000000Hz,0000852164c,0000001.849s, 018.0C,00002191
2016-11-16 18:59:48 r, 20.36m,0000000000Hz,0000757089c,0000001.643s, 017.7C,00002191
2016-11-16 19:09:48 r, 20.36m,0000000000Hz,0000760310c,0000001.650s, 018.0C,00002191
2016-11-16 19:19:48 r, 20.14m,0000000001Hz,0000619958c,0000001.345s, 017.7C,00002191
2016-11-16 19:29:48 r, 19.90m,0000000001Hz,0000495036c,0000001.074s, 017.7C,00002191
2016-11-16 19:39:48 r, 19.79m,0000000001Hz,0000448332c,0000000.973s, 017.4C,00002191
2016-11-16 19:49:48 r, 19.51m,0000000001Hz,0000347568c,0000000.754s, 016.7C,00002191
2016-11-16 19:59:48 r, 19.92m,0000000001Hz,0000504160c,0000001.094s, 016.4C,00002191
2016-11-16 20:09:48 r, 19.63m,0000000002Hz,0000385879c,0000000.837s, 016.4C,00002191
2016-11-16 20:19:47 r, 19.44m,0000000002Hz,0000326462c,0000000.708s, 016.4C,00002191
2016-11-16 20:29:48 r, 19.38m,0000000002Hz,0000308085c,0000000.669s, 016.1C,00002191
2016-11-16 20:39:48 r, 19.32m,0000000002Hz,0000292897c,0000000.636s, 016.1C,00002191
2016-11-16 20:49:47 r, 19.18m,0000000002Hz,0000257365c,0000000.559s, 016.4C,00002191
2016-11-16 20:59:48 r, 19.33m,0000000002Hz,0000298537c,0000000.648s, 016.4C,00002191
2016-11-16 21:09:48 r, 19.04m,0000000002Hz,0000225528c,0000000.489s, 016.4C,00002191
2016-11-16 21:19:48 r, 19.25m,0000000001Hz,0000274520c,0000000.596s, 016.4C,00002191
2016-11-16 21:29:47 r, 19.06m,0000000002Hz,0000230060c,0000000.499s, 016.1C,00002191
2016-11-16 21:39:48 r, 19.13m,0000000002Hz,0000246556c,0000000.535s, 016.1C,00002191
2016-11-16 21:49:48 r, 19.08m,0000000002Hz,0000234132c,0000000.508s, 015.7C,00002191
2016-11-16 21:59:48 r, 19.05m,0000000002Hz,0000227603c,0000000.494s, 015.7C,00002191
2016-11-16 22:09:47 r, 18.80m,0000000002Hz,0000181364c,0000000.394s, 015.4C,00002191
2016-11-16 22:19:47 r, 18.47m,0000000003Hz,0000134942c,0000000.293s, 015.1C,00002191
2016-11-16 22:29:47 r, 18.63m,0000000003Hz,0000156415c,0000000.339s, 015.1C,00002191
2016-11-16 22:39:47 r, 18.62m,0000000003Hz,0000153672c,0000000.333s, 014.8C,00002191
2016-11-16 22:49:48 r, 18.06m,0000000005Hz,0000092157c,0000000.200s, 014.8C,00002191
2016-11-16 22:59:47 r, 17.70m,0000000007Hz,0000065717c,0000000.143s, 014.8C,00002191
2016-11-16 23:09:48 r, 17.47m,0000000008Hz,0000053682c,0000000.116s, 015.1C,00002191
2016-11-16 23:19:48 r, 17.62m,0000000007Hz,0000061134c,0000000.133s, 015.4C,00002191
2016-11-16 23:29:48 r, 17.45m,0000000009Hz,0000052626c,0000000.114s, 015.7C,00002191
2016-11-16 23:39:48 r, 17.26m,0000000011Hz,0000043831c,0000000.095s, 016.1C,00002191
2016-11-16 23:49:47 r, 17.25m,0000000011Hz,0000043706c,0000000.095s, 016.4C,00002191
2016-11-16 23:59:47 r, 17.29m,0000000011Hz,0000045074c,0000000.098s, 016.4C,00002191
